Tracking 29892 objects as of 21-Nov-2024
HD Live streaming from Space Station
objects crossing your sky now

STARLINK-5922

Track STARLINK-5922 now!
10-day predictions
STARLINK-5922 is classified as:


NORAD ID: 55925
Int'l Code: 2023-037M
Perigee: 576.9 km
Apogee: 581.5 km
Inclination: 70.0 °
Period: 96.1 minutes
Semi major axis: 6950 km
RCS: Unknown
Launch date: March 17, 2023
Source: United States (US)
Launch site: AIR FORCE WESTERN TEST RANGE (AFWTR)
Your satellite tracking list
Your tracking list is empty




NASA's NSSDC Master Catalog

Two Line Element Set (TLE):
1 55925U 23037M   24325.25721514  .00001286  00000-0  11558-3 0  9994
2 55925  70.0000  60.5936 0003333 276.5355  83.5425 14.98325952 92421
Source of the keplerian elements: AFSPC